Location: Bun Machan
(52.1403°N, 7.3744°W)
Time: 01:17:03
(UTC+00:00)

ATLAS 5 CENTAUR R/B - Pass Details

Date: 14 July 2020
Orbit: 534 x 1124 km, 63.4° (Epoch: 30 July)

Event Time Altitude Azimuth Distance (km) Brightness Sun altitude
Rises 01:31:30 0° 312° (NW) 3,114 5.6 -15.2°
Reaches altitude 10° 01:33:48 10° 319° (NW) 2,278 4.9 -15.1°
Maximum altitude 01:38:53 46° 32° (NNE) 1,126 3.4 -14.9°
Drops below altitude 10° 01:44:49 10° 105° (ESE) 2,665 4.8 -14.7°
Sets 01:47:42 0° 111° (ESE) 3,699 5.5 -14.6°
